Location: Shell Point
(30.0571°N, 84.2896°W)
Time: 08:51:52
(UTC-04:00)

Meteor 2-19 Rocket - Visible Passes

Search period start: 05 July 2015 00:00
Search period end: 15 July 2015 00:00
Orbit: 936 x 959 km, 82.5° (Epoch: 04 July)

Date Brightness Start Highest point End Pass type
(mag) Time Alt. Az. Time Alt. Az. Time Alt. Az.
05 Jul 4.6 21:31:03 10° S 21:37:13 82° W 21:43:22 10° N visible
06 Jul 5.4 21:48:21 10° SSW 21:54:16 49° W 22:00:10 10° N visible
07 Jul 6.4 22:06:08 10° SW 22:11:27 29° WNW 22:16:38 10° NNW visible
08 Jul 7.1 22:24:39 10° WSW 22:28:46 18° WNW 22:32:33 10° NW visible
10 Jul 5.2 21:11:29 10° SSW 21:17:31 59° W 21:23:32 10° N visible
11 Jul 6.2 21:29:04 10° SW 21:34:38 35° WNW 21:40:07 10° NNW visible
12 Jul 7.1 21:47:17 10° WSW 21:51:54 21° WNW 21:56:16 10° NNW visible
13 Jul 7.5 22:06:49 10° W 22:09:19 12° WNW 22:11:19 10° NW visible
